Weather History for KJKL - December, 2012

Change the Weather History Date:

Thursday, December 27, 2012

  Actual Average Record
Temperature  
Mean Temperature 29 °F 36 °F  
Max Temperature 30 °F 44 °F 71 °F (2008)
Min Temperature 28 °F 28 °F 15 °F (2004)
Degree Days  
Heating Degree Days 36 29  
Month to date heating degree days 521 716  
Since 1 July heating degree days 1473 1516  
Cooling Degree Days 0 0  
Month to date cooling degree days 0 0  
Year to date cooling degree days 1318 1154  
Moisture  
Dew Point 24 °F    
Average Humidity 84    
Maximum Humidity 92    
Minimum Humidity 75    
Precipitation  
Precipitation T in 0.13 in 1.47 in (1990)
Month to date precipitation 6.02 3.69  
Year to date precipitation 51.62 47.85  
Snow  
Snow T in 0.20 in - ()
Month to date snowfall 1.6 4.1  
Since 1 July snowfall 2.7 4.7  
Snow Depth 0.00 in    
Sea Level Pressure  
Sea Level Pressure 30.08 in    
Wind  
Wind Speed 4 mph (WNW)    
Max Wind Speed 15 mph    
Max Gust Speed 25 mph    
Visibility 10 miles    
Events      
T = Trace of Precipitation, MM = Missing Value Source: NWS Daily Summary

Daily Weather History Graph

Daily Weather History Graph

Search for Another Location

Airport or City:

Trip Planner

Search our weather history database for the weather conditions in past years. The results will help you decide how hot, cold, wet, or windy it might be!

Date:

Astronomy

Dec. 27, 2012 Rise Set
Actual Time 7:47 AM EST 5:22 PM EST
Civil Twilight 7:17 AM EST 5:51 PM EST
Nautical Twilight 6:45 AM EST 6:24 PM EST
Astronomical Twilight 6:13 AM EST 6:56 PM EST
Moon 5:03 PM EST (12/27) 6:57 AM EST (12/27)
Length of Visible Light 10h 33m
Length of Day
9h 35m
Full, 100% of the Moon is Illuminated
Dec 27
Full
Dec 28
Full
Jan 4
Last Quarter
Jan 11
New
Jan 18
First Quarter

Hourly Weather History & Observations

Time (EST) Temp. Windchill Dew Point Humidity Pressure Visibility Wind Dir Wind Speed Gust Speed Precip Events Conditions
12:46 AM 28.4 °F 19.1 °F 26.6 °F 93% 29.89 in 8.0 mi West 10.4 mph 24.2 mph 0.00 in   Overcast
12:53 AM 28.9 °F 19.8 °F 27.0 °F 92% 29.91 in 8.0 mi West 10.4 mph 17.3 mph 0.00 in   Overcast
1:43 AM 28.4 °F 19.7 °F 26.6 °F 93% 29.91 in 10.0 mi West 9.2 mph 24.2 mph N/A   Overcast
1:53 AM 28.9 °F 20.4 °F 26.1 °F 89% 29.94 in 10.0 mi WNW 9.2 mph 19.6 mph N/A   Overcast
2:25 AM 28.4 °F 19.7 °F 24.8 °F 86% 29.93 in 10.0 mi WNW 9.2 mph 18.4 mph N/A   Overcast
2:53 AM 28.0 °F 20.8 °F 25.0 °F 88% 29.98 in 10.0 mi Variable 6.9 mph - N/A   Overcast
3:53 AM 28.0 °F 20.8 °F 26.1 °F 92% 30.01 in 8.0 mi Variable 6.9 mph 20.7 mph 0.00 in   Overcast
4:53 AM 28.0 °F 20.0 °F 25.0 °F 88% 30.02 in 10.0 mi West 8.1 mph - 0.00 in   Overcast
5:53 AM 28.0 °F 20.8 °F 25.0 °F 88% 30.06 in 10.0 mi Variable 6.9 mph 19.6 mph N/A   Overcast
6:53 AM 28.4 °F 22.2 °F 24.8 °F 86% 30.04 in 10.0 mi Variable 5.8 mph - N/A   Overcast
7:53 AM 28.0 °F 21.7 °F 24.1 °F 85% 30.09 in 10.0 mi West 5.8 mph - N/A   Overcast
8:53 AM 28.0 °F 22.8 °F 24.1 °F 85% 30.12 in 10.0 mi West 4.6 mph - N/A   Overcast
9:53 AM 28.0 °F 22.8 °F 24.1 °F 85% 30.13 in 9.0 mi Variable 4.6 mph - N/A   Overcast
10:53 AM 28.0 °F 18.6 °F 21.9 °F 78% 30.15 in 10.0 mi NW 10.4 mph - N/A   Overcast
11:48 AM 28.4 °F 23.3 °F 23.0 °F 80% 30.11 in 10.0 mi NW 4.6 mph - N/A   Overcast
11:53 AM 28.0 °F 21.7 °F 23.0 °F 81% 30.14 in 10.0 mi NW 5.8 mph - N/A   Overcast
12:53 PM 28.0 °F 20.8 °F 23.0 °F 81% 30.13 in 10.0 mi West 6.9 mph - N/A   Overcast
1:53 PM 28.0 °F 24.2 °F 23.0 °F 81% 30.13 in 10.0 mi WNW 3.5 mph - N/A   Overcast
2:53 PM 28.9 °F 25.2 °F 23.0 °F 78% 30.13 in 10.0 mi WNW 3.5 mph - N/A   Overcast
3:53 PM 28.0 °F - 23.0 °F 81% 30.14 in 10.0 mi Calm Calm - N/A   Overcast
4:53 PM 28.0 °F - 23.0 °F 81% 30.16 in 10.0 mi Calm Calm - N/A   Overcast
5:53 PM 28.0 °F - 23.0 °F 81% 30.17 in 10.0 mi Calm Calm - N/A   Overcast
6:53 PM 28.0 °F - 23.0 °F 81% 30.17 in 10.0 mi Calm Calm - N/A   Overcast
7:53 PM 28.0 °F - 23.0 °F 81% 30.18 in 10.0 mi Calm Calm - N/A   Overcast
8:53 PM 28.0 °F - 23.0 °F 81% 30.17 in 10.0 mi Calm Calm - N/A   Overcast
9:53 PM 28.0 °F - 23.0 °F 81% 30.17 in 10.0 mi Calm Calm - N/A   Overcast
10:53 PM 28.0 °F - 24.1 °F 85% 30.17 in 10.0 mi Calm Calm - N/A   Overcast
11:53 PM 28.0 °F 24.2 °F 24.1 °F 85% 30.16 in 10.0 mi East 3.5 mph - N/A   Overcast